Weather History for Somerset, KY

Change the Weather History Date:

Saturday, February 8, 2014

  Actual Average Record
Temperature  
Mean Temperature 29 °F -  
Max Temperature 35 °F 48 °F 73 °F (2001)
Min Temperature 23 °F 29 °F 8 °F (2003)
Degree Days  
Heating Degree Days 36    
Moisture  
Dew Point 26 °F    
Average Humidity 85    
Maximum Humidity 100    
Minimum Humidity 74    
Precipitation  
Precipitation 0.00 in - - ()
Sea Level Pressure  
Sea Level Pressure 30.24 in    
Wind  
Wind Speed 1 mph (North)    
Max Wind Speed 6 mph    
Max Gust Speed -    
Visibility 8 miles    
Events Rain , Snow    
Averages and records for this station are not official NWS values.
T = Trace of Precipitation, MM = Missing Value Source: NWS Daily Summary

Daily Weather History Graph

Daily Weather History Graph

Search for Another Location

Airport:

Trip Planner

Search our weather history database for the weather conditions in past years. The results will help you decide how hot, cold, wet, or windy it might be!

Date:

Astronomy

Feb. 08, 2014 Rise Set
Actual Time 7:34 AM EST 6:11 PM EST
Civil Twilight 7:07 AM EST 6:38 PM EST
Nautical Twilight 6:36 AM EST 7:08 PM EST
Astronomical Twilight 6:06 AM EST 7:39 PM EST
Moon 1:06 PM EST (2/8) 2:44 AM EST (2/8)
Length of Visible Light 11h 30m
Length of Day
10h 36m
Waxing Gibbous, 68% of the Moon is Illuminated
Feb 8
Waxing Gibbous
Feb 14
Full
Feb 22
Last Quarter
Mar 1
New
Mar 8
First Quarter

Hourly Weather History & Observations

Time (EST) Temp. Windchill Dew Point Humidity Pressure Visibility Wind Dir Wind Speed Gust Speed Precip Events Conditions
12:15 AM 23.0 °F - 17.6 °F 80% 30.32 in 10.0 mi Calm Calm - N/A   Overcast
12:35 AM 23.0 °F - 17.6 °F 80% 30.32 in 10.0 mi Calm Calm - N/A   Overcast
12:55 AM 24.8 °F - 17.6 °F 74% 30.32 in 10.0 mi Calm Calm - N/A   Overcast
1:15 AM 24.8 °F - 17.6 °F 74% 30.32 in 10.0 mi Calm Calm - N/A   Overcast
1:35 AM 24.8 °F - 17.6 °F 74% 30.32 in 10.0 mi Calm Calm - N/A   Overcast
1:55 AM 24.8 °F - 17.6 °F 74% 30.31 in 10.0 mi Calm Calm - N/A   Overcast
2:15 AM 24.8 °F 20.5 °F 19.4 °F 80% 30.31 in 10.0 mi NE 3.5 mph - N/A   Overcast
2:35 AM 24.8 °F 19.1 °F 19.4 °F 80% 30.32 in 10.0 mi NE 4.6 mph - N/A   Overcast
2:55 AM 24.8 °F 20.5 °F 19.4 °F 80% 30.31 in 10.0 mi NNE 3.5 mph - N/A   Overcast
3:15 AM 24.8 °F 17.9 °F 19.4 °F 80% 30.31 in 10.0 mi NE 5.8 mph - N/A   Overcast
3:35 AM 24.8 °F 19.1 °F 19.4 °F 80% 30.30 in 4.0 mi NNE 4.6 mph - N/A Snow Light Snow
3:55 AM 23.0 °F 18.4 °F 19.4 °F 86% 30.30 in 3.0 mi NE 3.5 mph - N/A Snow Light Snow
4:15 AM 23.0 °F - 19.4 °F 86% 30.30 in 3.0 mi Calm Calm - N/A Snow Light Snow
4:35 AM 23.0 °F - 19.4 °F 86% 30.29 in 2.5 mi Calm Calm - N/A Snow Light Snow
4:55 AM 23.0 °F - 19.4 °F 86% 30.29 in 3.0 mi Calm Calm - N/A Snow Light Snow
5:15 AM 23.0 °F - 21.2 °F 93% 30.29 in 2.0 mi Calm Calm - N/A Snow Light Snow
5:35 AM 23.0 °F - 21.2 °F 93% 30.29 in 4.0 mi Calm Calm - N/A Snow Light Snow
5:55 AM 23.0 °F - 21.2 °F 93% 30.29 in 3.0 mi Calm Calm - N/A Snow Light Snow
6:15 AM 23.0 °F - 23.0 °F 100% 30.29 in 1.5 mi Calm Calm - N/A Snow Light Snow
6:35 AM 23.0 °F - 23.0 °F 100% 30.28 in 4.0 mi Calm Calm - N/A Snow Light Snow
6:55 AM 23.0 °F - 23.0 °F 100% 30.28 in 3.0 mi Calm Calm - N/A Snow Light Snow
7:15 AM 23.0 °F - 23.0 °F 100% 30.28 in 3.0 mi Calm Calm - N/A Snow Light Snow
7:35 AM 23.0 °F - 23.0 °F 100% 30.27 in 4.0 mi Calm Calm - N/A Snow Light Snow
7:55 AM 23.0 °F - 21.2 °F 93% 30.27 in 5.0 mi Calm Calm - N/A Snow Light Snow
8:15 AM 23.0 °F - 23.0 °F 100% 30.27 in 7.0 mi Calm Calm - N/A Snow Light Snow
8:35 AM 24.8 °F - 23.0 °F 93% 30.27 in 4.0 mi Calm Calm - N/A Snow Light Snow
8:55 AM 24.8 °F - 23.0 °F 93% 30.28 in 10.0 mi Calm Calm - N/A   Overcast
9:15 AM 26.6 °F - 23.0 °F 86% 30.28 in 3.0 mi Calm Calm - N/A Snow Light Snow
9:35 AM 26.6 °F 22.6 °F 24.8 °F 93% 30.28 in 5.0 mi SE 3.5 mph - N/A Snow Light Snow
9:55 AM 26.6 °F 22.6 °F 23.0 °F 86% 30.28 in 2.0 mi SE 3.5 mph - N/A Snow Light Snow
10:15 AM 28.4 °F - 23.0 °F 80% 30.28 in 1.5 mi Calm Calm - N/A Snow Light Snow
10:35 AM 28.4 °F - 24.8 °F 86% 30.28 in 3.0 mi Calm Calm - N/A Snow Light Snow
10:55 AM 30.2 °F - 24.8 °F 80% 30.28 in 1.5 mi Calm Calm - N/A Snow Light Snow
11:15 AM 30.2 °F - 26.6 °F 86% 30.28 in 1.5 mi Calm Calm - N/A Snow Light Snow
11:35 AM 32.0 °F - 26.6 °F 80% 30.27 in 5.0 mi Calm Calm - N/A Snow Light Snow
11:55 AM 32.0 °F 28.7 °F 26.6 °F 80% 30.25 in 7.0 mi ESE 3.5 mph - N/A   Overcast
12:15 PM 32.0 °F - 26.6 °F 80% 30.25 in 7.0 mi Calm Calm - N/A   Overcast
12:35 PM 33.8 °F - 28.4 °F 81% 30.23 in 7.0 mi Calm Calm - N/A Rain Light Rain
12:55 PM 33.8 °F - 28.4 °F 81% 30.22 in 10.0 mi Calm Calm - N/A   Mostly Cloudy
1:15 PM 33.8 °F - 28.4 °F 81% 30.22 in 10.0 mi Calm Calm - N/A   Overcast
1:35 PM 33.8 °F - 28.4 °F 81% 30.21 in 10.0 mi Calm Calm - N/A   Overcast
1:55 PM 33.8 °F - 28.4 °F 81% 30.20 in 10.0 mi Calm Calm - N/A   Overcast
2:15 PM 33.8 °F - 28.4 °F 81% 30.20 in 10.0 mi Calm Calm - N/A   Overcast
2:35 PM 33.8 °F - 28.4 °F 81% 30.20 in 10.0 mi Calm Calm - N/A   Overcast
2:55 PM 35.6 °F 32.8 °F 28.4 °F 75% 30.18 in 10.0 mi West 3.5 mph - N/A   Overcast
3:15 PM 35.6 °F - 28.4 °F 75% 30.17 in 10.0 mi Calm Calm - N/A   Overcast
3:35 PM 35.6 °F 31.7 °F 30.2 °F 81% 30.17 in 10.0 mi SW 4.6 mph - N/A   Overcast
3:55 PM 35.6 °F - 30.2 °F 81% 30.16 in 10.0 mi Calm Calm - N/A   Overcast
4:15 PM 35.6 °F 32.8 °F 28.4 °F 75% 30.16 in 10.0 mi SSW 3.5 mph - N/A   Overcast
4:35 PM 35.6 °F - 30.2 °F 81% 30.15 in 10.0 mi Calm Calm - N/A   Overcast
4:55 PM 35.6 °F - 30.2 °F 81% 30.15 in 10.0 mi Calm Calm - N/A   Overcast
5:15 PM 35.6 °F - 30.2 °F 81% 30.16 in 10.0 mi Calm Calm - N/A   Overcast
5:35 PM 35.6 °F - 30.2 °F 81% 30.16 in 10.0 mi Calm Calm - N/A   Overcast
5:55 PM 35.6 °F - 30.2 °F 81% 30.16 in 10.0 mi Calm Calm - N/A   Overcast
6:15 PM 35.6 °F - 30.2 °F 81% 30.16 in 10.0 mi Calm Calm - N/A   Overcast
6:35 PM 33.8 °F - 30.2 °F 87% 30.15 in 10.0 mi Calm Calm - N/A   Overcast
6:55 PM 33.8 °F - 30.2 °F 87% 30.16 in 10.0 mi Calm Calm - N/A   Overcast
7:15 PM 35.6 °F 32.8 °F 30.2 °F 81% 30.18 in 10.0 mi NW 3.5 mph - N/A   Overcast
7:35 PM 35.6 °F 31.7 °F 30.2 °F 81% 30.18 in 10.0 mi WNW 4.6 mph - N/A   Overcast
7:55 PM 35.6 °F 31.7 °F 30.2 °F 81% 30.18 in 10.0 mi West 4.6 mph - N/A   Overcast
8:15 PM 35.6 °F - 30.2 °F 81% 30.18 in 10.0 mi Calm Calm - N/A   Overcast
8:35 PM 35.6 °F 32.8 °F 30.2 °F 81% 30.18 in 10.0 mi West 3.5 mph - N/A   Overcast
8:55 PM 35.6 °F - 30.2 °F 81% 30.18 in 10.0 mi Calm Calm - N/A   Overcast
9:15 PM 33.8 °F - 30.2 °F 87% 30.19 in 10.0 mi Calm Calm - N/A   Overcast
9:35 PM 33.8 °F - 30.2 °F 87% 30.20 in 10.0 mi Calm Calm - N/A   Overcast
9:55 PM 33.8 °F - 30.2 °F 87% 30.20 in 10.0 mi Calm Calm - N/A   Overcast
10:15 PM 33.8 °F - 30.2 °F 87% 30.18 in 10.0 mi Calm Calm - N/A   Overcast
10:35 PM 33.8 °F - 30.2 °F 87% 30.18 in 10.0 mi Calm Calm - N/A   Overcast
10:55 PM 33.8 °F - 30.2 °F 87% 30.17 in 10.0 mi Calm Calm - N/A   Overcast
11:15 PM 33.8 °F - 30.2 °F 87% 30.16 in 10.0 mi Calm Calm - N/A   Overcast
11:35 PM 33.8 °F - 32.0 °F 93% 30.16 in 10.0 mi Calm Calm - N/A   Overcast
11:55 PM 33.8 °F - 32.0 °F 93% 30.15 in 10.0 mi Calm Calm - N/A   Overcast